GFSFLT2_925_spd_267.txt.gz
Wind_Speed
21 20 18 16 16 15 13 11 11 10 8 7 7 7 5 4 5 5 5 5 7 8 9 9 8 8 7 6 4 4 4 5
21 21 19 18 16 14 13 11 9 8 7 7 5 4 4 5 4 4 5 5 6 7 8 8 8 8 8 7 7 7 7 6
19 20 19 18 16 15 12 11 9 8 7 5 5 5 5 5 4 5 6 6 7 8 8 9 9 10 10 9 10 11 10 10
15 17 18 17 15 14 12 11 9 8 7 6 5 5 5 6 6 7 7 8 8 9 10 11 12 12 12 13 13 14 14 14
12 13 15 15 15 14 11 9 8 8 8 7 6 6 7 7 8 9 10 10 11 12 13 14 15 16 16 16 17 18 18 17
8 10 11 12 10 10 8 7 8 9 8 8 8 8 9 10 10 9 11 11 13 13 15 17 19 20 21 22 21 21 22 22
4 7 9 9 8 8 8 6 6 7 8 8 9 10 10 11 12 12 13 14 16 17 18 19 21 23 25 26 26 26 25 26
12 5 5 6 9 8 10 11 11 10 11 12 14 13 12 12 15 17 16 17 19 21 22 22 23 25 26 27 29 29 30 30
14 12 8 5 3 2 3 5 5 7 8 11 15 17 20 23 23 22 22 21 21 24 26 27 28 28 29 28 29 30 30 31
20 16 15 17 17 20 18 17 18 17 14 12 11 9 10 18 22 27 29 28 27 26 27 29 31 31 32 33 34 35 35 35
31 24 21 22 22 20 20 20 22 22 22 21 19 18 16 16 13 12 15 19 23 26 30 31 31 30 32 33 35 37 38 39
34 32 26 20 22 24 24 29 27 26 24 24 24 25 21 20 17 17 18 16 15 18 19 22 28 34 33 30 33 36 37 38
34 34 33 26 22 20 20 27 32 32 30 29 27 26 27 28 26 24 21 22 20 22 23 20 22 22 22 25 29 31 36 38
33 34 33 30 27 27 20 17 26 29 29 30 30 29 30 29 28 29 29 27 26 25 25 22 16 22 12 19 7 18 25 29
29 30 31 32 31 28 24 24 26 32 32 31 30 30 30 30 28 29 28 27 27 27 28 22 19 21 23 10 4 7 17 25
26 28 30 30 30 32 34 33 27 28 28 29 30 31 32 33 31 29 28 26 26 27 24 24 23 19 25 18 23 21 6 10
23 25 27 27 29 31 31 30 27 28 29 31 31 30 31 32 32 31 31 29 28 25 26 24 20 17 21 26 25 25 15 8
19 21 22 23 25 26 28 27 27 29 30 31 31 29 30 31 30 30 29 29 30 29 27 23 26 18 21 19 20 13 22 15
16 17 17 17 19 22 25 26 25 26 26 27 28 29 29 29 28 29 28 26 26 28 27 27 27 21 18 20 19 20 20 22
14 15 14 13 15 17 19 21 22 23 23 25 26 27 26 27 28 28 28 27 26 26 23 27 28 19 21 22 27 20 20 21

GFSFLT2_925_spd_270.txt.gz
Wind_Speed
19 18 16 15 14 13 12 11 10 9 8 6 4 4 4 3 3 4 6 6 6 7 7 8 7 6 6 5 6 7 8 8
18 17 15 14 13 11 10 9 8 8 7 6 5 3 2 2 2 2 2 3 5 6 6 6 7 7 7 8 8 9 10 10
14 14 15 14 13 11 9 8 6 5 5 4 3 3 3 2 2 2 2 2 3 4 6 8 9 10 10 10 11 12 13 13
8 8 10 13 12 11 10 8 6 5 4 4 3 3 3 4 4 4 5 5 6 7 8 10 11 12 12 13 14 15 16 16
5 6 8 11 10 10 9 7 6 5 5 5 4 5 5 5 6 6 7 7 8 9 11 12 14 15 16 18 18 19 19 19
4 6 8 9 7 7 7 6 6 5 5 6 7 8 8 8 9 8 9 9 10 11 13 14 15 16 19 21 22 23 24 25
7 6 6 7 6 5 5 5 5 6 7 8 10 11 11 12 12 13 14 14 15 14 15 17 18 19 21 22 23 24 25 27
11 8 6 5 4 1 1 3 2 1 0 3 5 7 9 12 14 16 18 19 21 23 24 24 24 24 25 25 26 27 27 27
13 13 13 12 11 8 9 10 7 7 7 6 4 3 6 8 10 12 14 16 20 23 25 26 29 31 32 31 29 28 29 30
16 18 21 20 19 19 18 19 18 18 16 16 15 14 10 9 8 8 11 11 12 14 18 22 26 29 32 32 34 34 34 33
21 20 22 23 21 24 23 20 20 20 17 18 18 17 16 13 14 14 13 13 11 12 12 14 19 23 26 29 31 33 34 33
23 23 25 24 26 27 27 27 26 25 25 23 20 20 19 18 18 19 17 18 17 16 15 14 16 15 21 25 26 31 32 35
29 27 19 19 20 21 27 28 26 28 28 26 26 25 25 25 24 22 21 20 22 22 22 19 14 24 14 19 21 25 27 27
30 30 26 24 24 23 19 24 28 27 27 28 28 27 27 26 26 25 24 23 23 24 25 19 14 22 13 15 5 9 5 27
29 29 29 29 26 26 23 23 26 28 30 29 28 28 27 27 25 25 24 25 25 24 23 23 15 15 20 12 5 4 20 11
28 29 30 28 27 29 30 30 24 25 25 24 25 26 26 26 25 24 24 24 25 25 25 20 21 14 12 15 9 11 4 6
25 27 27 27 28 28 29 29 25 24 24 25 24 25 25 25 24 24 24 23 23 23 24 22 21 13 13 17 13 14 7 9
22 23 23 23 25 25 26 25 24 25 24 25 24 23 24 24 23 23 22 22 22 23 21 21 22 16 12 15 14 10 18 12
19 20 21 20 22 23 24 23 22 23 22 23 23 24 24 24 22 22 22 21 20 20 20 21 22 18 15 15 14 20 16 15
18 18 19 17 19 20 20 20 20 21 20 20 21 21 21 21 21 21 22 21 20 19 20 20 17 17 17 19 23 15 16 17

GFSFLT2_925_spd_273.txt.gz
Wind_Speed
14 12 12 11 10 10 10 9 8 8 7 5 5 5 5 5 5 5 5 5 5 6 7 7 5 5 4 4 5 6 6 6
13 12 10 10 10 8 8 7 6 5 5 4 3 3 3 3 3 3 4 4 4 5 5 5 6 6 7 8 8 9 8 8
10 10 9 10 9 8 6 6 5 4 3 2 1 0 1 1 0 1 2 3 3 4 5 6 7 9 9 10 11 10 11 11
10 10 9 9 8 7 6 4 3 1 0 1 2 2 2 2 3 3 4 4 4 5 6 8 9 9 10 12 12 13 15 13
10 9 8 9 8 7 5 3 1 1 2 3 4 4 5 5 4 4 6 7 7 8 8 9 10 11 11 13 14 16 14 15
8 8 9 10 7 6 4 1 2 4 5 5 6 6 7 7 7 7 8 7 9 9 10 12 14 15 16 17 17 17 14 16
10 9 9 9 5 4 2 2 2 2 1 1 3 4 4 5 6 7 8 10 12 13 13 14 16 16 17 19 20 19 20 19
9 9 9 8 9 10 8 7 5 3 3 3 0 1 3 5 5 5 6 8 10 12 13 15 16 17 21 22 24 25 23 24
10 11 12 13 13 12 11 10 9 7 8 8 6 3 2 4 4 6 8 7 9 9 10 12 14 14 17 18 18 21 22 24
13 13 15 16 16 16 16 15 15 14 12 11 10 10 7 6 6 7 8 8 9 9 10 12 12 14 15 17 17 18 19 21
20 21 20 20 21 22 20 18 17 16 15 13 13 12 12 10 11 11 10 10 10 11 9 11 11 12 15 17 19 21 21 20
19 21 21 20 23 23 23 23 21 20 19 18 17 17 16 14 15 14 13 13 15 15 14 12 9 16 18 17 16 20 20 17
18 21 21 21 18 20 15 16 18 22 19 19 20 19 18 17 16 16 15 15 16 17 14 12 12 21 11 13 14 12 9 7
19 18 16 18 16 16 14 16 17 17 16 19 20 19 19 18 18 17 17 14 17 18 17 14 11 18 12 11 6 10 7 18
21 20 21 21 20 20 20 18 14 15 16 16 17 18 19 19 19 17 17 16 16 16 16 16 13 11 12 9 4 4 21 8
21 22 23 22 20 19 17 16 16 14 14 13 14 17 18 18 18 17 16 14 16 15 15 15 13 13 10 12 8 10 4 9
21 24 23 22 21 20 18 19 16 13 12 12 13 15 17 17 16 15 15 14 14 14 15 16 14 10 10 14 7 13 6 9
19 21 21 21 21 21 20 18 15 14 14 13 13 12 14 16 15 14 14 14 14 13 13 14 14 11 11 11 12 7 16 11
18 19 18 18 20 20 18 17 16 15 13 13 11 12 13 14 14 15 15 14 14 13 14 13 14 13 14 14 12 13 13 17
18 17 17 16 17 17 15 14 14 14 14 12 11 12 13 13 14 14 15 15 14 14 13 14 15 15 15 14 16 14 15 16

GFSFLT2_925_spd_276.txt.gz
Wind_Speed
12 11 10 11 10 10 9 8 8 7 6 6 5 5 5 5 5 5 6 6 6 7 6 5 4 3 3 4 5 6 5 4
11 10 9 8 7 8 8 7 6 5 4 4 4 5 5 5 6 2 3 3 3 4 5 4 5 6 7 8 9 9 7 7
9 9 8 7 7 6 5 5 4 4 4 3 5 1 2 2 2 1 1 2 3 4 5 6 7 8 10 11 11 9 10 10
10 9 8 8 7 6 5 4 3 3 2 1 2 1 1 1 2 2 2 3 3 4 6 7 8 8 8 11 8 10 12 13
11 9 9 9 7 6 5 4 3 2 1 1 1 1 2 1 1 2 2 5 3 5 6 6 6 8 9 9 10 12 13 15
11 10 9 9 7 7 6 4 3 2 1 1 2 1 2 2 2 3 3 3 4 5 6 7 8 9 10 11 12 13 14 15
10 9 9 9 8 8 7 5 5 5 4 4 3 1 2 2 2 3 4 5 6 7 8 9 10 12 12 13 15 15 16 17
9 8 8 9 9 11 8 6 6 5 5 5 4 3 3 3 3 3 4 5 6 8 10 11 12 13 14 15 16 16 17 18
8 9 11 13 12 9 8 7 6 7 6 5 5 6 5 4 3 4 6 7 8 9 10 12 14 15 16 18 18 19 20 20
9 10 12 14 13 10 9 9 8 7 8 7 8 6 5 6 5 6 7 6 7 8 8 10 12 12 15 17 20 21 21 22
12 12 14 15 16 15 14 13 11 10 10 9 11 10 10 8 8 8 8 8 9 10 9 9 10 12 15 18 18 20 21 21
13 14 16 18 19 18 16 14 13 12 12 13 13 12 12 9 9 10 10 9 10 11 11 10 9 14 18 17 16 18 18 16
13 17 17 15 14 14 12 13 11 12 12 13 14 13 13 11 10 11 10 12 12 14 12 11 11 17 12 16 14 10 8 8
13 13 12 10 10 11 11 11 11 12 11 13 13 13 13 13 11 11 11 9 13 14 14 13 10 15 13 12 5 13 4 22
12 12 12 11 12 13 13 13 11 10 9 11 12 13 13 13 12 12 11 11 12 13 14 14 11 11 13 9 5 5 20 4
14 13 13 12 10 10 9 9 11 9 10 10 11 12 12 12 12 11 11 11 12 11 12 12 12 12 8 11 5 6 5 8
14 14 13 12 12 12 12 12 11 10 9 9 10 10 11 11 11 11 11 11 11 12 12 13 12 11 10 11 9 11 7 12
15 15 14 13 12 13 13 12 11 10 8 8 8 8 9 11 11 11 12 12 12 12 12 13 12 11 11 11 11 12 14 10
17 16 15 14 13 13 13 12 12 10 8 7 7 8 8 11 11 12 12 11 10 10 11 11 12 11 12 11 12 12 14 16
18 17 17 15 14 13 12 11 10 9 8 8 8 9 9 9 9 10 10 10 11 10 10 11 11 11 12 12 12 13 14 15

GFSFLT2_925_spd_279.txt.gz
Wind_Speed
13 12 12 13 11 9 8 7 6 6 6 6 6 7 6 6 6 6 6 6 6 5 4 2 2 4 5 6 8 9 11 8
14 14 12 11 10 9 8 7 6 5 4 5 6 6 7 8 5 3 4 4 5 5 5 5 5 7 7 9 11 11 10 10
11 11 11 11 11 9 9 7 6 5 5 4 2 4 2 2 1 2 1 2 3 4 5 7 8 8 7 8 11 8 9 9
11 11 10 9 13 8 8 5 4 4 3 2 1 1 1 1 1 2 1 2 3 3 5 7 9 8 10 6 7 8 10 12
12 10 9 8 8 8 8 6 4 3 2 1 0 1 1 2 3 4 2 3 5 5 7 6 7 8 9 10 11 12 13 13
12 10 8 8 5 7 4 5 5 4 3 1 1 3 0 2 3 2 3 4 4 7 8 7 10 10 11 12 13 14 15 16
12 10 8 9 7 7 4 5 2 4 2 3 3 5 3 4 3 5 5 5 7 8 9 10 11 13 13 13 14 16 17 17
8 8 8 9 4 8 7 6 4 4 4 4 5 3 3 4 5 6 6 7 9 10 13 13 14 15 16 16 16 17 19 19
9 10 10 8 8 9 7 5 5 5 4 7 7 5 4 4 3 4 6 7 8 9 10 13 15 16 18 18 18 19 20 21
6 7 8 8 9 9 7 6 5 5 5 7 8 8 7 6 5 6 7 7 8 9 10 11 13 14 15 16 18 19 19 20
9 10 9 10 11 9 8 8 7 7 7 8 9 9 8 7 7 8 8 7 9 10 10 10 12 12 15 17 17 17 17 17
11 11 13 14 14 14 11 10 11 8 9 8 9 10 10 8 9 10 9 9 10 12 12 12 11 14 20 17 15 15 13 10
12 14 15 16 16 13 12 10 12 12 11 10 11 10 11 10 9 10 9 11 12 13 13 11 11 16 13 19 12 9 8 14
13 14 13 10 9 8 9 9 10 10 10 11 11 12 12 12 11 10 11 9 13 14 15 13 9 15 16 12 5 7 18 10
14 13 12 10 10 11 11 13 10 10 8 9 11 12 13 12 12 11 10 10 12 13 14 15 12 12 14 11 5 5 17 9
14 14 13 13 12 10 10 9 9 8 8 9 10 11 11 11 11 10 11 11 12 11 13 12 13 13 11 11 7 8 4 7
14 14 13 12 10 10 10 10 11 9 9 9 9 9 10 10 10 11 11 11 11 12 13 14 12 12 12 13 12 11 9 12
16 15 14 13 12 11 10 11 11 10 9 9 7 8 9 10 10 12 12 11 11 12 12 13 13 13 13 13 13 13 15 16
17 16 15 14 14 13 13 12 12 12 9 8 8 8 8 10 11 12 11 11 11 10 12 12 13 13 14 13 12 13 15 16
19 18 17 16 15 15 14 13 11 10 8 9 9 9 9 9 10 10 11 11 10 10 12 12 12 12 13 14 12 13 15 16

GFSFLT2_925_spd_282.txt.gz
Wind_Speed
16 15 15 14 13 12 11 10 9 8 9 9 9 9 9 8 8 8 8 8 8 6 5 3 1 2 4 6 7 8 8 8
17 12 13 12 12 10 9 9 8 7 8 8 8 10 9 8 8 5 4 4 4 4 4 4 5 6 6 6 8 10 8 11
19 15 13 10 10 10 8 8 8 8 9 6 2 2 3 5 3 2 1 2 3 3 3 5 7 8 8 7 8 9 7 12
15 14 15 16 13 8 10 8 6 4 4 4 2 2 4 5 1 1 1 0 3 2 3 5 8 8 12 10 9 8 10 10
15 14 12 15 15 11 15 12 11 8 5 1 2 2 3 4 5 4 2 3 3 3 6 6 6 6 9 8 10 11 14 16
18 15 10 8 9 7 13 12 7 5 10 5 2 6 3 0 3 5 6 10 5 7 10 7 8 12 12 11 11 11 12 15
15 16 13 11 6 4 12 13 10 9 11 3 4 9 3 5 7 9 11 9 12 11 11 11 13 11 14 13 12 13 17 17
17 16 11 8 1 9 11 11 10 9 4 3 4 7 2 6 11 11 9 10 15 14 16 16 17 18 18 18 17 17 18 20
17 17 14 12 11 13 14 13 9 8 7 8 9 6 6 7 8 7 8 8 9 10 12 12 16 18 18 17 17 18 18 18
15 14 14 12 13 13 12 11 9 7 6 5 9 7 8 6 9 6 9 8 7 9 11 15 13 14 14 15 17 16 15 17
15 13 14 14 13 12 10 10 7 7 7 8 9 9 11 8 7 10 10 11 11 10 10 14 14 16 17 17 16 14 13 13
13 14 14 15 16 15 12 12 11 9 8 8 10 10 11 11 10 12 9 10 14 15 14 12 15 19 18 17 14 7 10 18
14 15 15 15 16 15 14 14 12 14 13 11 9 12 10 12 12 10 14 14 15 15 17 12 16 23 15 15 13 16 25 22
16 18 19 19 14 14 14 15 13 13 12 13 11 13 13 12 13 13 14 14 16 16 18 15 16 21 15 10 5 4 21 24
18 20 20 18 16 19 18 15 16 15 13 12 12 13 13 14 13 14 14 14 15 17 18 17 16 18 23 11 4 3 15 12
19 19 19 16 18 16 19 20 16 15 14 12 13 13 14 13 15 15 15 14 17 15 16 17 18 18 14 19 15 14 3 5
22 20 17 17 18 16 13 18 18 15 15 13 13 14 15 14 15 15 14 15 14 14 17 18 19 18 18 18 18 16 20 6
20 20 17 15 15 16 15 18 18 17 15 14 13 13 13 14 13 13 14 13 13 16 16 18 19 19 19 18 18 13 14 11
20 20 19 18 17 15 18 17 17 18 15 14 14 14 13 12 12 13 13 14 16 16 17 18 18 18 18 17 17 17 15 15
23 23 22 20 20 19 18 18 17 16 15 14 15 15 13 12 13 13 15 16 15 15 17 16 17 17 18 17 15 16 15 15

GFSFLT2_925_spd_288.txt.gz
Wind_Speed
28 25 23 21 19 18 17 15 15 14 14 13 13 12 11 11 11 11 11 11 9 7 5 4 4 5 6 8 8 11 11 10
29 26 23 21 19 17 16 15 14 14 14 13 12 11 11 9 8 8 8 7 5 4 2 1 2 4 5 8 10 10 12 14
28 26 23 20 19 17 16 15 15 15 13 10 9 9 8 7 6 6 5 5 3 2 1 2 3 5 5 6 8 9 10 12
28 26 24 22 21 19 18 18 16 13 9 5 5 5 4 3 3 3 3 2 2 2 4 4 4 6 5 5 5 5 8 11
28 26 24 23 22 22 20 19 17 12 7 5 6 4 4 6 4 3 3 3 3 6 7 9 11 12 11 11 11 9 11 15
29 26 24 20 19 21 18 16 13 10 12 10 10 7 5 4 7 7 3 6 3 4 3 7 10 8 7 7 7 6 10 13
29 26 22 19 16 17 16 15 13 16 14 10 7 10 15 14 13 16 10 9 9 7 6 6 7 7 8 9 12 9 11 12
31 27 21 18 20 20 19 19 22 18 15 11 10 7 10 12 12 10 8 5 4 2 2 3 4 7 9 14 13 14 21 29
33 29 22 18 22 27 29 27 22 16 12 10 10 8 9 8 8 8 6 4 2 1 2 1 2 6 11 18 23 28 28 27
32 29 27 29 30 30 26 23 18 14 12 11 10 10 9 7 6 6 3 2 1 3 3 3 5 7 10 16 26 30 28 27
32 32 33 31 27 26 23 19 15 12 11 11 9 8 7 7 5 3 1 1 3 3 5 5 7 8 11 19 26 27 27 26
37 34 32 30 27 23 19 15 13 12 11 10 10 9 7 7 7 4 2 3 7 9 9 9 9 15 30 32 29 28 27 27
36 34 31 29 26 24 20 18 15 13 11 11 10 10 8 9 9 7 6 8 11 11 13 13 20 33 31 31 29 26 26 26
33 32 30 27 26 24 20 22 16 15 14 13 12 12 11 10 10 10 10 11 13 14 13 19 20 12 7 9 3 6 17 21
31 30 29 27 25 22 23 18 20 19 16 15 13 12 13 11 10 11 12 12 14 14 14 17 20 21 11 5 2 2 2 6
28 28 28 27 26 26 33 29 25 21 20 18 16 14 14 13 12 12 14 14 16 16 14 16 18 19 19 24 19 7 2 1
27 28 29 30 30 32 33 29 24 25 22 20 18 16 15 14 15 15 16 16 17 17 17 18 19 19 17 10 19 21 16 9
32 31 33 30 33 34 31 32 33 30 26 24 21 19 18 15 16 17 17 17 17 18 18 19 21 23 24 24 19 9 9 11
33 35 32 33 34 33 33 33 34 30 29 27 25 23 20 18 18 19 18 17 18 19 21 21 22 25 26 27 26 24 19 14
33 34 33 35 33 32 32 34 33 30 29 28 25 24 22 21 20 19 19 18 18 21 23 23 23 25 26 26 24 21 19 19

GFSFLT2_925_spd_291.txt.gz
Wind_Speed
28 25 23 21 20 18 17 17 16 14 13 13 13 12 13 13 13 12 12 11 9 8 7 6 5 6 8 9 10 11 12 14
28 26 24 22 20 18 17 16 16 16 15 13 13 12 12 11 11 10 9 7 6 4 4 4 5 6 8 9 10 9 10 13
29 27 24 22 20 18 17 17 17 15 14 13 12 10 10 9 8 7 6 4 2 0 1 2 2 4 7 8 9 9 11 12
28 26 25 22 20 19 18 18 17 15 12 9 8 7 6 6 5 4 3 2 1 2 5 7 8 8 8 9 10 11 12 12
28 26 25 24 22 20 19 18 17 13 10 9 9 6 4 4 2 2 1 1 1 2 3 5 4 6 5 7 7 4 7 11
29 26 25 23 21 21 19 17 14 12 9 8 9 8 7 6 5 3 1 2 3 2 6 10 10 11 9 11 11 10 10 15
30 27 25 23 21 21 19 16 14 13 13 11 8 6 8 7 7 11 8 7 8 8 7 8 10 10 8 9 11 14 18 20
30 28 25 22 20 21 18 18 14 15 14 13 11 10 14 12 13 13 10 7 5 4 4 4 8 7 9 12 17 24 26 26
31 28 24 22 20 21 19 19 18 16 13 11 10 11 12 11 10 10 7 5 4 2 3 6 9 13 18 23 26 25 26 25
31 28 25 24 23 23 23 21 20 16 12 10 10 11 10 10 8 6 5 3 3 3 5 7 11 16 22 28 28 27 26 24
32 30 26 24 22 24 25 22 18 14 12 11 11 11 9 8 8 7 5 4 4 4 7 8 15 26 30 28 26 25 24 23
35 31 29 27 27 26 23 19 15 12 11 11 11 10 9 8 7 6 5 6 7 6 5 9 22 31 32 30 27 25 24 23
38 36 34 33 31 27 22 19 15 13 11 10 11 10 9 8 7 6 6 6 8 7 10 21 30 35 30 29 26 25 24 23
40 39 38 36 34 30 25 21 15 14 13 12 10 10 9 8 7 7 6 8 11 10 16 28 25 19 9 12 3 6 21 22
44 42 40 36 33 27 21 18 17 15 14 13 12 11 10 9 8 7 8 8 11 11 14 26 18 10 14 4 3 3 6 7
41 42 39 35 33 29 30 28 22 17 19 16 14 12 12 10 9 9 10 11 12 13 14 17 18 20 14 12 7 6 3 3
44 41 38 35 32 30 30 26 24 22 20 19 17 15 12 11 10 11 12 12 14 13 14 14 12 11 13 11 15 17 11 4
43 41 38 35 33 31 31 29 26 27 24 22 20 18 16 14 14 13 13 14 15 17 17 16 17 17 14 10 8 5 5 7
35 36 33 36 35 33 32 30 29 30 29 26 24 22 20 17 16 16 15 15 17 18 20 21 22 25 24 25 22 19 16 17
35 38 37 39 36 34 32 31 31 30 28 27 25 23 20 20 17 17 17 17 19 20 22 24 24 25 24 23 23 20 19 17